Probability
0 1 0 0 0 0 0 0 0 0 0 1 2 1 0 0 0 0 0 0 0 0 1 0 0 1 1 1 0 0 0 0 0 1 2 1 0 0 0 0 0 0 0
1 1 1 1 0 0 0 0 0 0 0 1 1 1 0 0 0 0 0 0 0 0 1 1 1 1 1 1 0 0 0 0 0 1 2 2 1 0 0 0 0 0 0
1 2 2 2 1 0 0 0 0 0 0 0 0 0 0 0 0 0 0 0 0 0 1 1 1 0 0 1 1 0 0 0 0 1 2 2 1 0 0 0 0 0 0
0 1 3 3 2 1 0 0 0 0 0 0 0 0 0 0 0 0 0 0 0 0 0 0 0 0 0 1 1 1 0 0 0 1 2 2 1 0 0 0 0 0 0
0 1 2 3 3 2 1 0 0 0 0 0 0 0 0 0 0 0 0 0 0 0 0 0 0 0 0 1 1 1 1 1 0 1 2 2 1 0 0 0 0 0 0
0 0 1 3 3 3 1 0 0 0 0 0 0 0 0 0 0 0 0 0 0 0 0 0 0 0 0 1 1 0 0 1 1 1 2 2 2 2 1 0 0 0 0
0 0 1 2 3 3 2 1 0 0 0 0 0 0 0 0 0 0 0 0 0 0 0 0 0 0 0 0 0 0 0 0 0 1 2 2 2 2 2 1 0 0 0
0 0 1 2 3 3 2 1 0 0 0 0 0 0 0 0 0 0 0 0 0 0 0 0 0 0 0 0 0 0 0 0 0 0 1 2 1 2 2 1 0 0 0
0 0 0 1 2 3 2 1 0 0 0 0 0 0 0 0 0 0 0 0 0 0 0 0 0 0 0 0 0 0 0 0 0 0 1 1 1 1 2 2 1 0 0
0 0 0 0 1 3 2 1 0 0 0 0 0 0 0 0 0 0 0 0 0 0 0 0 0 0 0 0 0 0 0 0 0 0 0 1 1 1 1 2 1 1 1
0 0 0 0 1 2 2 1 0 0 0 0 0 0 0 0 0 0 0 0 0 0 0 0 0 0 0 0 0 0 0 0 0 0 0 0 0 0 0 1 1 1 2
0 0 0 0 0 1 2 1 0 0 0 0 0 0 0 0 0 0 0 0 0 0 0 0 0 0 0 0 0 0 0 0 0 0 0 0 0 0 0 0 0 1 1
0 0 0 0 0 1 2 2 1 0 0 0 0 0 0 0 0 0 0 0 0 0 0 0 0 0 0 0 0 0 0 0 0 0 0 0 0 0 0 0 0 0 0
0 0 0 0 0 0 1 1 1 0 0 0 0 0 0 0 0 0 0 0 0 0 0 0 0 0 0 0 0 0 0 0 0 0 0 0 0 0 0 0 0 0 0
0 0 0 0 0 0 0 0 0 0 0 0 0 0 0 0 0 0 0 0 0 0 0 0 0 0 0 0 0 0 0 0 0 0 0 0 0 0 0 0 0 0 0
0 0 0 0 0 0 0 0 0 0 0 0 0 0 0 0 0 0 0 0 0 0 0 0 0 0 0 0 0 0 0 0 0 0 0 0 0 0 0 0 0 0 0
0 0 0 0 0 0 0 0 0 0 0 0 0 0 0 0 0 0 0 0 0 0 0 0 0 0 0 0 0 0 0 0 0 0 0 0 0 0 0 0 0 0 0
0 0 0 0 0 0 0 0 1 1 1 0 0 0 0 0 0 0 0 0 0 0 0 0 0 0 0 0 0 0 0 0 0 0 0 0 0 0 0 0 0 0 0
0 0 0 0 0 0 0 0 1 1 1 0 0 0 0 0 0 0 0 0 0 0 0 0 0 0 0 0 0 0 0 0 0 0 0 0 0 0 0 0 0 0 0
0 0 0 0 0 0 0 0 0 0 0 0 0 0 0 0 0 0 0 0 0 0 0 0 0 0 0 0 0 0 0 0 0 0 0 0 0 0 0 0 0 0 0
0 0 0 0 0 0 0 0 0 0 0 0 0 0 0 0 0 0 0 0 0 0 0 0 0 0 0 0 0 0 0 0 0 0 0 0 0 0 0 0 0 0 0
0 0 0 0 0 0 0 0 0 0 0 0 0 0 0 0 0 0 0 0 0 0 0 0 0 0 0 0 0 0 0 0 0 0 0 0 0 0 0 0 0 0 0
0 0 0 0 0 0 0 0 0 0 0 0 0 0 0 0 0 0 0 0 0 0 0 0 0 0 0 0 0 0 0 0 0 0 0 0 0 0 0 0 0 0 0
0 0 0 0 0 0 0 0 0 0 0 0 0 0 0 0 0 0 0 0 0 0 0 0 0 0 0 0 0 0 0 0 0 0 0 0 0 0 0 0 0 0 0
0 0 0 0 0 0 0 0 0 0 0 0 0 0 0 0 0 0 0 0 0 0 0 0 0 0 0 0 0 0 0 0 0 0 0 0 0 0 0 0 0 0 0
0 0 0 0 0 0 0 0 0 0 0 0 0 0 0 0 0 0 0 0 0 0 0 0 0 0 0 0 0 0 0 0 0 0 0 0 0 0 0 0 0 0 0
Wind_Speed
3 3 3 3 3 3 3 3 3 3 3 3 4 4 3 3 3 3 3 7 8 7 7 7 7 6 6 6 6 6 6 6 6 5 5 4 4 3 3 3 4 4 4
3 3 3 3 3 3 3 3 3 3 2 2 3 4 4 3 3 3 2 4 7 7 7 7 7 7 6 5 6 6 6 6 5 5 5 4 3 3 3 2 2 3 3
3 3 2 3 3 3 3 3 4 3 3 3 3 3 3 3 2 3 3 2 3 6 8 7 6 6 6 6 5 5 5 5 5 4 4 4 4 3 2 2 2 2 1
3 3 2 2 3 3 3 3 3 3 3 3 2 2 2 2 3 3 3 3 3 3 5 8 8 7 7 7 6 6 4 4 4 4 4 4 3 3 3 2 2 2 2
3 3 2 2 2 2 2 3 3 2 2 3 2 2 2 2 2 3 3 4 3 3 3 5 7 8 8 8 8 7 6 5 4 4 3 3 3 2 2 2 1 1 2
3 2 2 2 2 2 2 3 3 3 2 2 2 2 1 1 1 2 3 3 3 4 4 4 3 4 7 8 8 8 7 6 4 3 3 3 2 2 2 2 2 2 2
2 2 2 2 2 2 2 3 2 3 3 3 2 2 2 1 1 2 2 2 3 3 3 4 3 3 3 6 7 8 8 7 5 4 3 3 2 2 2 2 2 2 2
2 2 2 1 1 1 2 3 3 2 2 3 2 1 1 2 2 1 1 2 2 2 3 3 3 3 3 2 5 7 7 7 7 6 4 4 3 3 3 3 3 3 2
1 2 2 1 1 1 1 1 2 2 1 2 2 1 1 1 2 2 2 2 2 2 2 2 3 3 3 3 3 6 7 7 7 7 7 5 5 5 4 4 4 4 3
1 1 1 1 1 1 1 1 1 1 1 1 2 2 1 0 0 2 2 2 2 2 2 2 2 2 2 2 3 6 7 7 8 8 8 8 7 6 5 5 5 5 4
1 0 1 1 1 0 0 1 1 1 1 0 0 1 2 2 1 1 2 2 2 1 1 1 1 1 2 2 2 5 8 7 7 8 8 8 8 8 7 7 6 5 5
0 0 0 0 0 0 0 0 0 0 1 1 1 0 0 0 1 1 2 2 2 2 2 1 1 0 1 2 3 6 7 7 7 8 8 8 8 9 9 9 8 7 6
0 1 0 0 0 1 1 1 1 1 0 0 1 1 1 1 1 1 1 2 3 2 1 1 0 0 1 1 2 5 6 7 7 8 8 8 9 9 9 9 9 8 7
1 1 0 0 0 1 1 1 1 1 1 1 1 1 1 1 1 1 1 1 3 3 2 2 1 1 2 1 3 5 3 6 7 8 8 8 8 9 9 9 9 9 8
1 1 1 1 1 1 1 1 1 1 1 1 1 1 1 1 1 1 1 1 1 3 3 2 1 2 2 2 4 3 2 6 7 8 8 8 8 8 8 9 9 9 9
0 1 1 1 1 1 2 2 1 2 2 2 1 1 2 1 1 1 1 2 1 2 3 2 2 3 3 3 5 3 3 8 8 8 8 8 8 8 9 8 9 9 9
1 1 2 2 2 2 2 2 2 2 2 2 2 2 2 2 1 1 1 2 2 2 4 4 3 3 3 4 4 3 3 3 4 8 8 8 8 8 9 9 9 9 9
1 2 2 2 2 2 2 2 3 3 3 3 3 3 3 2 2 2 2 2 2 2 3 5 4 3 3 4 4 4 4 4 3 7 9 9 9 9 9 8 8 9 9
2 2 2 3 3 3 3 3 3 3 3 3 3 3 3 3 3 2 3 3 3 3 2 4 4 3 3 3 4 4 4 3 5 6 8 9 9 9 9 9 9 9 9
2 3 3 3 3 3 4 4 4 4 4 4 4 4 4 4 4 4 4 4 3 3 3 4 4 4 3 3 3 3 4 3 4 4 6 7 8 9 9 9 9 9 9
3 3 3 3 3 3 4 4 5 5 4 4 4 4 5 7 8 7 5 4 4 4 4 4 4 4 4 3 4 3 4 3 4 4 3 4 4 3 4 7 8 9 10
2 3 3 3 4 4 8 9 6 5 5 5 5 5 5 7 9 11 11 10 8 6 5 5 5 5 5 4 4 4 3 4 4 2 2 4 3 3 3 3 7 10 11
3 3 3 3 4 6 10 10 10 5 4 4 5 5 5 6 7 5 8 11 10 12 12 7 6 6 6 5 5 5 5 5 5 3 3 5 3 4 4 5 10 11 11
2 3 4 4 4 7 10 11 10 5 3 4 5 5 5 5 6 6 5 5 5 6 8 6 6 6 6 5 6 6 6 5 5 4 3 5 4 4 5 4 9 12 12
3 3 4 4 5 6 11 11 9 3 4 5 5 5 6 5 10 11 7 6 6 6 9 12 12 11 12 12 9 4 4 4 5 4 2 3 4 4 4 4 6 9 10
3 4 5 4 5 6 10 11 10 3 4 4 4 5 9 9 11 12 6 5 7 7 6 7 8 9 8 8 11 6 4 5 4 4 3 2 3 2 4 3 2 3 4
Wind_Direction
39 37 33 26 19 14 11 1 1 4 7 7 7 9 21 31 34 52 48 45 41 39 42 47 51 52 54 52 56 58 57 53 54 64 72 79 86 87 92 89 83 78 76
40 42 37 25 14 9 5 1 358 2 4 10 10 8 13 23 26 45 55 49 47 43 39 43 46 44 42 46 49 52 55 51 53 57 61 67 73 80 88 90 91 81 75
40 41 41 26 7 6 6 5 3 8 9 13 9 5 14 21 26 29 41 51 48 44 40 41 41 37 31 35 44 44 47 45 46 48 50 59 67 69 80 86 83 79 69
46 48 45 24 7 12 11 8 8 13 8 3 359 356 10 24 33 36 40 46 50 53 40 40 39 37 31 29 35 36 38 38 38 41 45 47 52 63 63 63 58 48 44
47 55 51 28 16 18 15 8 11 14 8 359 348 356 21 27 33 42 42 41 42 50 50 42 42 37 32 29 31 35 36 32 26 24 35 39 38 46 53 40 28 19 18
53 56 52 31 21 24 19 14 10 13 18 353 349 357 355 18 43 51 47 41 38 42 43 43 43 31 29 28 22 22 23 23 19 13 12 20 25 21 19 15 12 6 357
57 63 50 39 28 28 23 19 16 23 18 5 15 352 332 348 82 69 56 47 38 35 40 38 39 41 21 24 16 16 15 12 10 4 359 350 345 346 333 329 330 339 349
62 64 65 43 31 34 30 30 31 22 11 11 14 359 346 342 13 33 60 68 44 28 41 40 33 39 31 27 13 15 13 9 10 2 344 334 329 313 304 307 308 306 319
77 76 81 63 29 61 61 28 34 36 4 344 16 46 80 298 331 331 5 49 41 30 25 23 33 34 32 28 10 7 11 7 3 1 354 335 321 312 300 294 288 292 293
81 70 89 85 59 39 58 1 24 17 43 342 343 359 1 101 200 313 318 10 17 21 21 12 13 20 30 29 17 11 10 7 0 353 346 347 340 327 313 306 298 289 288
104 87 96 98 89 53 44 10 359 16 12 348 328 326 334 342 21 245 284 308 332 333 344 340 345 359 19 31 21 12 8 360 355 349 345 343 339 333 329 325 312 304 294
153 4 84 96 144 162 71 291 309 7 342 343 331 322 317 301 306 288 277 297 298 295 305 316 329 355 21 29 10 4 360 354 350 343 337 336 338 338 338 333 327 318 306
232 248 266 206 241 246 244 277 282 251 264 248 274 280 290 293 297 307 294 292 295 291 279 282 278 333 355 20 356 351 345 342 336 331 331 333 337 337 333 335 333 328 322
226 229 251 233 270 266 261 256 278 261 269 254 276 290 290 293 320 315 288 294 298 294 276 271 299 352 350 356 336 340 334 331 329 326 326 330 333 332 329 328 330 331 325
237 209 233 253 250 253 255 239 245 251 249 243 247 267 279 284 295 302 297 271 245 277 282 271 312 341 337 343 330 333 321 316 318 319 320 321 323 322 320 319 320 322 324
198 221 238 241 249 248 251 250 241 239 251 252 237 235 262 277 280 291 290 289 267 248 268 284 301 311 320 315 312 320 308 310 312 311 309 312 314 313 311 309 310 313 315
218 220 231 239 244 243 241 249 251 236 236 246 249 238 244 256 258 265 273 276 277 264 267 287 298 303 307 303 304 306 303 295 293 299 301 302 304 304 303 302 303 305 306
231 235 237 239 245 248 236 234 245 245 232 234 244 246 247 251 251 252 252 257 263 263 261 278 288 294 290 291 288 291 298 295 287 295 299 296 294 294 295 294 295 296 297
234 242 240 237 241 242 241 240 238 240 238 236 237 241 245 242 252 255 252 253 260 267 265 271 279 281 283 284 290 289 286 286 288 290 294 295 294 294 294 291 290 292 293
230 233 241 240 243 246 245 244 242 239 236 240 240 241 244 241 243 247 252 252 257 265 263 267 274 277 276 274 278 282 289 282 288 295 290 292 294 293 294 294 290 290 290
245 241 245 249 251 249 242 235 235 237 236 240 241 241 244 249 250 250 250 243 242 250 256 260 269 273 271 270 268 269 278 283 279 278 278 281 284 279 283 289 293 292 290
240 240 242 248 255 259 258 255 250 237 239 242 249 250 253 258 261 263 265 263 255 248 248 253 261 260 262 263 266 268 271 277 278 265 278 284 279 274 269 261 277 285 287
242 245 248 248 255 261 263 263 260 253 238 239 244 249 256 255 263 258 266 269 271 270 264 258 255 259 262 256 255 262 259 261 266 266 281 278 270 273 271 273 282 283 285
245 249 256 254 259 266 269 269 266 264 247 243 243 243 248 248 251 255 252 257 258 266 270 269 252 256 261 257 245 249 255 263 271 266 252 269 273 272 279 270 278 280 281
257 258 259 253 255 266 271 274 273 252 249 246 249 250 251 244 254 261 260 256 264 269 275 274 271 268 266 267 264 256 252 256 269 269 246 255 272 284 277 270 272 278 283
262 265 268 261 255 257 266 272 273 253 252 255 254 254 257 257 257 261 253 246 258 264 265 272 272 274 270 264 267 252 238 247 263 268 246 246 271 293 292 271 264 277 285